Location: Bonningues
(50.7927°N, 2.0150°E)
Time: 15:14:53
(UTC+00:00)

Cosmos 1459 Rocket - Pass Details

Date: 08 August 2020
Orbit: 936 x 1000 km, 83.0° (Epoch: 24 September)

Event Time Altitude Azimuth Distance (km) Brightness Sun altitude
Exits shadow 22:42:33 30° 202° (SSW) 1,682 4.8 -21.4°
Maximum altitude 22:45:50 74° 281° (W) 1,032 4.1 -21.6°
Drops below altitude 10° 22:52:14 10° 7° (N) 2,778 7.3 -21.9°
Sets 22:54:48 0° 10° (N) 3,735 8.1 -22.0°
